SCP
0 0 0 0 0 0 0 0 0 0 0 0 0 0 0 0 0 0 1 1 1 1 2 2 2 2 2 2 3 3 2 2 2 2 1 1 1 1 1 1 1 1 0
0 0 0 0 0 0 0 0 0 0 0 0 0 0 0 0 0 0 1 1 1 1 1 2 2 2 2 2 3 3 3 2 2 2 2 1 1 1 1 1 1 1 1
0 0 0 0 0 0 0 0 0 0 0 0 0 0 0 0 0 0 0 0 1 1 1 1 2 2 2 2 2 3 3 3 3 2 2 1 1 1 1 1 1 1 1
0 0 0 0 0 0 0 0 0 0 0 0 0 0 0 0 0 0 0 0 0 0 1 1 1 1 2 2 2 3 3 4 3 2 2 2 2 1 1 1 1 1 1
0 0 0 0 0 0 0 0 0 0 0 0 0 0 0 0 0 0 0 0 0 0 0 0 1 1 1 2 2 2 3 3 3 3 2 2 2 1 1 1 1 2 2
0 0 0 0 0 0 0 0 0 0 0 0 0 0 0 0 0 0 0 0 0 0 0 0 0 1 1 1 2 2 2 2 3 3 2 2 2 1 1 1 1 2 2
0 0 0 0 0 0 0 0 0 0 0 0 0 0 0 0 0 0 0 0 0 0 0 0 0 1 1 1 1 2 2 2 2 2 2 2 2 2 2 1 1 2 2
0 0 0 0 0 0 0 0 0 0 0 0 0 0 0 0 0 0 0 0 0 0 0 0 0 1 1 1 1 1 2 2 2 2 2 2 2 2 2 2 2 2 2
0 0 0 0 0 0 0 0 0 0 0 0 0 0 0 0 0 0 0 0 0 0 0 0 0 0 1 1 1 1 1 2 2 2 2 2 2 2 2 2 2 1 1
0 0 0 0 0 0 0 0 0 0 0 0 0 0 0 0 0 0 0 0 0 0 0 0 0 0 0 0 1 1 1 2 2 2 2 2 3 2 2 2 2 1 1
0 0 0 0 0 0 0 0 0 0 0 0 0 0 0 0 0 0 0 0 0 0 0 0 0 0 0 0 1 1 1 1 2 2 2 2 2 2 2 2 1 1 1
0 0 0 0 0 0 0 0 0 0 0 0 0 0 0 0 0 0 0 0 0 0 0 0 0 0 0 0 0 1 1 1 2 2 2 2 2 2 2 2 1 1 1
0 0 0 0 0 0 0 0 0 0 0 0 0 0 0 0 0 0 0 0 0 0 0 0 0 0 0 0 0 0 1 1 1 2 2 2 2 2 2 1 1 1 1
0 0 0 0 0 0 0 0 0 0 0 0 0 0 0 0 0 0 0 0 0 0 0 0 0 0 0 0 0 0 0 1 1 1 2 2 2 2 2 1 1 1 1
0 0 0 0 0 0 0 0 0 0 0 0 0 0 0 0 0 0 0 0 0 0 0 0 0 0 0 0 0 0 0 0 1 1 1 1 1 1 1 1 1 1 1
0 0 0 0 0 0 0 0 0 0 0 0 0 0 0 0 0 0 0 0 0 0 0 0 0 0 0 0 0 0 0 0 1 1 1 1 1 1 1 1 1 1 1
0 0 0 0 0 0 0 0 0 0 0 0 0 0 0 0 0 0 0 0 0 0 0 0 0 0 0 0 0 0 0 0 0 1 1 1 1 1 1 1 1 1 1
0 0 0 0 0 0 0 0 0 0 0 0 0 0 0 0 0 0 0 0 0 0 0 0 0 0 0 0 0 0 0 0 0 1 1 1 1 1 1 1 1 1 1
0 0 0 0 0 0 0 0 0 0 0 0 0 0 0 0 0 0 0 0 0 0 0 0 0 0 0 0 0 0 0 0 0 0 0 1 1 0 0 1 1 1 1
0 0 0 0 0 0 0 0 0 0 0 0 0 0 0 0 0 0 0 0 0 0 0 0 0 0 0 0 0 0 0 0 0 0 0 0 0 0 0 0 1 1 1
0 0 0 0 0 0 0 0 0 0 0 0 0 0 0 0 0 0 0 0 0 0 0 0 0 0 0 0 0 0 0 0 0 0 0 0 0 0 0 0 0 0 0
0 0 0 0 0 0 0 0 0 0 0 0 0 0 0 0 0 0 0 0 0 0 0 0 0 0 0 0 0 0 0 0 0 0 0 0 0 0 0 0 0 0 0
0 0 0 0 0 0 0 0 0 0 0 0 0 0 0 0 0 0 0 0 0 0 0 0 0 0 0 0 0 0 0 0 0 0 0 0 0 0 0 0 0 0 0
0 0 0 0 0 0 0 0 0 0 0 0 0 0 0 0 0 0 0 0 0 0 0 0 0 0 0 0 0 0 0 0 0 0 0 0 0 0 0 0 0 0 0
0 0 0 0 0 0 0 0 0 0 0 0 0 0 0 0 0 0 0 0 0 0 0 0 0 0 0 0 0 0 0 0 0 0 0 0 0 0 0 0 0 0 0
0 0 0 0 0 0 0 0 0 0 0 0 0 0 0 0 0 0 0 0 0 0 0 0 0 0 0 0 0 0 0 0 0 0 0 0 0 0 0 0 0 0 0
Wind_Speed
4 4 6 6 7 7 8 8 9 9 7 6 6 6 6 5 5 5 6 6 7 7 7 6 6 6 6 6 7 7 8 7 5 4 5 6 7 8 7 8 8 9 9
4 4 5 6 7 7 8 8 9 8 8 6 6 6 6 6 5 5 6 6 6 6 6 7 6 6 6 7 7 7 6 6 6 5 4 5 6 7 9 8 8 10 9
5 6 6 6 6 7 7 7 8 8 7 8 6 6 5 5 4 6 6 7 7 6 6 7 7 6 7 6 7 7 9 7 7 7 5 5 6 4 6 10 10 10 8
4 4 5 6 7 7 7 7 8 8 7 7 6 8 6 6 7 6 6 7 7 7 6 6 6 7 6 7 7 8 7 8 7 7 8 6 3 4 4 5 9 11 11
4 4 4 6 6 6 6 6 7 7 7 7 6 7 6 6 6 6 8 7 6 7 6 6 6 6 6 7 8 8 8 7 8 6 6 7 5 6 4 5 6 7 9
4 4 4 4 5 5 5 5 5 6 6 6 6 7 7 8 8 8 8 7 6 5 7 7 6 6 6 6 7 7 9 8 9 8 7 6 6 7 6 6 5 6 7
4 4 4 5 5 5 5 5 5 5 6 6 6 7 7 8 8 8 7 7 6 6 8 7 6 5 6 6 7 7 8 9 9 9 8 8 8 6 6 6 5 5 4
4 4 4 5 5 5 4 5 5 5 5 6 7 7 7 6 6 7 7 7 6 7 9 8 7 7 6 6 6 6 7 7 8 9 10 8 8 7 7 7 6 5 5
5 5 5 5 5 5 4 4 5 5 5 6 6 6 7 7 7 7 7 6 6 7 9 8 7 7 6 6 6 5 6 6 7 8 8 8 7 7 7 7 7 7 7
6 5 5 5 5 5 5 4 4 5 5 5 5 5 6 7 7 7 8 8 8 8 8 8 7 6 6 6 5 5 5 5 6 5 7 7 6 6 7 7 7 8 7
6 5 5 5 5 5 5 5 4 4 4 5 5 5 5 6 7 6 7 7 8 8 8 8 8 7 7 6 5 5 5 5 5 5 6 7 7 6 6 6 7 7 7
6 6 5 5 5 5 5 5 4 4 4 4 5 5 5 6 6 7 7 7 8 8 8 8 8 7 7 7 6 6 5 5 5 5 5 5 5 7 6 6 7 7 9
7 6 6 6 5 5 5 5 4 4 4 4 5 5 5 6 7 7 7 7 7 8 8 8 8 8 7 7 6 6 6 5 5 5 5 5 5 6 5 6 7 6 7
7 7 6 6 5 5 5 5 4 4 4 4 4 5 5 6 6 7 7 7 7 8 8 8 8 8 7 7 7 7 6 6 5 5 5 5 5 5 6 6 6 6 7
8 8 7 6 5 5 5 4 4 4 4 4 4 4 5 5 6 6 7 7 7 8 8 8 8 7 7 7 9 9 7 6 6 5 4 4 5 5 5 5 5 6 6
8 8 7 6 6 5 5 4 4 4 4 5 4 4 5 5 5 6 7 7 7 7 8 8 8 7 6 8 10 10 8 7 6 5 4 4 5 5 6 7 7 7 7
7 8 7 6 6 5 4 4 4 3 4 4 4 4 4 5 5 6 6 7 7 7 7 8 7 8 7 9 11 11 9 7 6 5 5 4 4 5 5 5 8 9 9
7 7 7 6 6 5 4 4 4 4 4 4 4 4 4 4 5 5 6 7 7 7 7 7 8 7 7 9 11 13 9 6 5 5 5 5 5 3 4 5 5 5 6
5 6 6 6 6 5 5 5 5 5 5 5 5 4 4 4 5 5 6 6 6 7 7 7 7 7 7 8 11 12 7 5 6 5 5 5 5 3 4 5 4 4 3
5 5 5 6 6 6 5 6 6 6 5 5 5 5 5 5 6 6 6 6 6 6 6 6 6 7 7 7 9 12 6 5 5 5 4 3 5 6 5 4 3 3 2
4 5 6 6 6 6 6 7 7 7 5 5 5 6 6 6 6 6 6 6 6 6 6 6 5 5 5 5 6 9 6 6 6 4 4 3 5 5 4 4 2 1 1
3 5 6 6 6 6 7 8 8 7 6 6 7 7 7 7 6 6 7 7 6 7 6 6 5 4 3 3 5 7 7 8 5 4 4 4 6 5 4 2 1 2 2
2 4 6 6 6 7 8 10 8 7 7 7 8 8 8 7 7 7 7 7 6 6 6 5 5 4 4 2 2 5 5 6 5 3 5 5 5 3 1 1 2 2 2
3 3 4 6 6 6 7 9 9 7 8 9 9 9 9 8 8 6 6 6 6 6 5 5 5 5 4 3 3 4 3 2 3 3 2 1 2 1 2 2 1 1 2
4 3 3 5 6 6 6 7 7 8 10 10 10 9 9 8 8 7 6 7 7 6 6 6 5 5 5 3 4 6 5 6 5 5 3 1 0 0 1 2 2 2 3
6 5 5 5 6 6 6 6 6 7 10 10 10 8 7 7 7 7 7 9 11 7 9 10 9 6 6 4 5 7 7 7 7 6 3 1 1 1 1 2 2 3 3
Wind_Direction
334 348 342 344 339 344 346 349 345 349 347 346 340 337 338 333 334 330 330 318 308 301 289 282 274 262 254 248 242 236 228 221 212 222 230 229 232 237 231 235 233 224 217
314 340 338 345 341 345 346 346 351 350 349 348 335 328 327 324 333 332 331 328 319 309 295 285 277 266 259 253 247 237 233 225 205 206 210 221 220 228 227 225 229 231 211
309 332 340 341 340 344 347 346 348 346 350 344 338 334 333 323 341 343 340 335 327 316 304 295 284 273 262 251 245 239 232 227 215 212 208 211 216 204 215 220 220 227 219
285 312 326 335 339 343 342 341 347 347 348 341 344 344 340 342 339 334 333 329 329 326 319 304 292 279 267 259 249 240 240 235 224 216 224 234 233 205 204 214 223 223 220
270 297 317 327 330 335 334 336 340 348 352 347 344 334 342 340 333 335 337 335 334 333 331 320 307 293 275 265 259 250 241 236 232 221 214 219 223 229 223 210 207 215 220
250 276 299 311 321 323 324 329 334 345 348 342 341 342 343 338 339 341 341 338 335 336 341 327 315 304 290 273 262 255 246 240 237 232 221 214 208 210 213 219 210 210 213
251 271 290 306 320 321 320 322 328 333 341 341 343 344 343 336 340 340 341 337 337 339 340 335 322 314 303 289 272 259 252 245 240 235 230 227 225 219 213 215 213 216 215
247 266 282 294 301 308 309 315 322 326 334 335 342 343 343 336 340 340 334 335 334 334 335 334 328 323 312 302 285 266 256 250 246 242 237 233 229 222 218 215 207 209 212
241 260 275 284 292 297 299 303 310 320 329 334 337 339 342 341 339 335 335 337 336 333 334 330 327 329 326 316 306 284 268 257 251 249 243 235 231 224 222 220 213 210 214
242 255 269 278 287 295 291 287 295 310 322 327 333 337 334 338 337 334 342 340 338 339 332 333 330 332 331 323 313 300 294 273 256 249 243 236 233 225 220 218 219 219 222
239 254 268 276 284 283 275 272 279 297 315 323 331 329 337 336 332 338 340 336 337 337 335 336 336 338 336 331 324 313 307 296 281 263 251 241 234 226 221 219 220 220 220
238 248 262 271 273 281 282 277 279 290 302 315 321 327 330 331 334 341 341 338 339 338 336 338 339 343 340 335 328 321 314 303 297 285 266 254 238 229 223 219 221 220 218
231 242 250 262 271 278 277 276 274 280 287 297 309 316 328 339 338 338 339 335 336 334 335 338 340 339 338 334 331 324 315 306 299 290 279 267 252 239 230 225 224 219 219
228 237 248 255 263 271 274 276 276 274 275 282 295 311 327 334 332 336 333 333 336 334 334 336 336 334 334 335 334 329 319 313 305 295 286 277 262 251 240 232 229 223 217
228 233 243 254 259 263 267 271 274 271 269 277 289 309 320 327 328 331 330 332 333 330 335 333 332 335 333 346 341 329 321 317 312 299 290 283 281 281 266 249 232 225 218
229 232 238 246 256 261 267 271 266 267 268 278 291 307 308 320 324 329 333 333 331 332 335 331 332 332 342 348 337 328 319 314 311 305 298 283 255 261 260 254 242 234 224
230 231 235 239 250 261 271 273 276 273 265 275 282 288 302 314 321 327 331 329 328 334 332 331 331 330 348 347 336 332 316 313 314 310 305 298 286 270 267 248 233 229 223
229 227 230 229 236 241 243 253 254 258 265 272 273 277 288 301 311 316 322 324 330 333 327 328 329 328 339 347 337 329 313 315 315 312 308 298 294 295 299 279 252 232 216
230 225 228 228 233 237 242 243 246 251 259 265 269 267 272 288 300 308 313 322 323 325 327 328 326 325 335 357 340 330 319 319 323 325 324 318 312 337 309 277 254 232 211
229 223 219 227 233 231 233 246 255 258 259 261 264 265 268 277 285 297 306 312 310 313 316 320 319 325 328 352 342 334 322 326 327 323 323 345 334 329 308 274 245 222 203
229 223 224 229 236 233 230 245 256 261 264 259 259 259 259 264 275 286 291 294 300 306 311 316 317 320 329 332 342 340 329 331 323 322 328 348 349 327 318 295 264 218 187
227 226 232 236 237 233 236 248 257 264 260 250 251 254 257 261 266 270 280 288 293 295 301 310 321 321 327 335 344 339 336 330 319 322 330 347 350 333 326 319 104 136 157
262 241 244 251 247 236 238 253 260 259 253 248 250 255 257 257 260 265 271 277 279 284 298 307 314 325 329 318 268 297 310 317 315 327 339 336 335 316 304 88 120 156 156
323 286 262 260 262 258 246 253 265 263 256 255 257 257 258 259 257 256 263 269 276 279 287 297 304 311 310 315 330 322 309 288 293 314 321 313 351 5 66 121 148 148 139
357 333 306 296 295 293 278 273 273 266 261 261 260 259 259 261 264 258 253 261 264 268 275 289 293 298 302 352 343 316 322 331 336 320 295 292 256 139 126 130 121 123 132
14 8 357 338 327 324 317 314 301 281 271 269 269 265 261 256 256 261 255 229 238 242 233 246 266 273 265 282 281 285 295 301 303 296 280 276 232 189 159 146 137 138 142